IT9FDP-13 Weather Reports


Display with metric or nautical units.
time (UTC)temp
F
wind
direction
speed
MPH
gust
MPH
rain 1hr
in
rain 24hr
in
rain mn
in
humidity
%
barometer
mb
20260507093521 74 165 11.0 19.0 0.00 0.00 0.00 43 1009.7
20260507093017 74 167 10.0 16.0 0.00 0.00 0.00 43 1009.6
20260507092518 74 185 10.0 15.0 0.00 0.00 0.00 44 1009.6
20260507092024 75 175 9.0 13.0 0.00 0.00 0.00 42 1009.6
20260507091525 75 180 9.0 15.0 0.00 0.00 0.00 41 1009.6
20260507091026 75 185 9.0 17.0 0.00 0.00 0.00 42 1009.5
20260507090526 75 170 8.0 17.0 0.00 0.00 0.00 43 1009.6
20260507090044 74 179 9.0 14.0 0.00 0.00 0.00 43 1009.6
20260507085523 74 169 8.0 15.0 0.00 0.00 0.00 45 1009.7
20260507085028 73 180 8.0 12.0 0.00 0.00 0.00 45 1009.8
20260507084522 73 174 9.0 13.0 0.00 0.00 0.00 46 1009.9
20260507084019 73 163 10.0 16.0 0.00 0.00 0.00 46 1010.0
20260507083525 73 169 7.0 13.0 0.00 0.00 0.00 47 1009.9
20260507083025 72 176 9.0 14.0 0.00 0.00 0.00 49 1010.0
20260507082519 72 174 11.0 15.0 0.00 0.00 0.00 49 1010.0
20260507082021 71 173 8.0 15.0 0.00 0.00 0.00 52 1010.2
20260507081520 71 170 9.0 15.0 0.00 0.00 0.00 52 1010.3
20260507081046 72 166 8.0 16.0 0.00 0.00 0.00 52 1010.4
20260507080524 72 179 7.0 9.0 0.00 0.00 0.00 51 1010.5
20260507080023 72 171 7.0 13.0 0.00 0.00 0.00 51 1010.4
20260507075527 72 174 8.0 11.0 0.00 0.00 0.00 51 1010.5
20260507075021 72 174 8.0 14.0 0.00 0.00 0.00 51 1010.6
20260507074516 71 178 9.0 14.0 0.00 0.00 0.00 52 1010.8
20260507074040 71 176 8.0 16.0 0.00 0.00 0.00 52 1010.9
20260507073516 71 173 8.0 12.0 0.00 0.00 0.00 52 1011.0
20260507073017 71 178 8.0 12.0 0.00 0.00 0.00 52 1011.1
20260507072523 71 157 7.0 10.0 0.00 0.00 0.00 53 1011.2
20260507072022 70 170 6.0 12.0 0.00 0.00 0.00 54 1011.2
20260507071545 70 170 8.0 13.0 0.00 0.00 0.00 55 1011.2
20260507071018 70 174 7.0 13.0 0.00 0.00 0.00 56 1011.2
20260507070519 70 173 9.0 19.0 0.00 0.00 0.00 56 1011.2
20260507070022 70 173 8.0 13.0 0.00 0.00 0.00 57 1011.2
20260507065542 69 170 7.0 11.0 0.00 0.00 0.00 57 1011.4
20260507065025 69 167 8.0 13.0 0.00 0.00 0.00 58 1011.5
20260507064525 69 173 6.0 11.0 0.00 0.00 0.00 59 1011.6
20260507064019 68 177 7.0 14.0 0.00 0.00 0.00 61 1011.6
20260507063526 68 173 6.0 11.0 0.00 0.00 0.00 62 1011.6
20260507063023 67 175 7.0 13.0 0.00 0.00 0.00 64 1011.6
20260507062518 67 179 5.0 8.0 0.00 0.00 0.00 66 1011.6
20260507062023 66 175 5.0 10.0 0.00 0.00 0.00 68 1011.6
20260507061519 65 172 4.0 11.0 0.00 0.00 0.00 70 1011.7
20260507061021 64 179 4.0 8.0 0.00 0.00 0.00 73 1011.6
20260507060541 64 182 3.0 10.0 0.00 0.00 0.00 75 1011.6
20260507060021 64 187 0.0 2.0 0.00 0.00 0.00 76 1011.7
20260507055515 63 179 2.0 4.0 0.00 0.00 0.00 77 1011.7
20260507055019 63 181 2.0 4.0 0.00 0.00 0.00 77 1011.8
20260507054526 62 179 1.0 4.0 0.00 0.00 0.00 78 1011.8
20260507054022 62 178 1.0 4.0 0.00 0.00 0.00 78 1011.8
20260507053520 63 169 0.0 3.0 0.00 0.00 0.00 78 1011.8
20260507053017 63 141 1.0 3.0 0.00 0.00 0.00 78 1012.0
20260507052524 63 170 2.0 6.0 0.00 0.00 0.00 78 1012.0
20260507052026 63 166 2.0 6.0 0.00 0.00 0.00 78 1012.1
20260507051543 62 178 1.0 7.0 0.00 0.00 0.00 78 1012.1
20260507051022 63 163 3.0 9.0 0.00 0.00 0.00 78 1012.1
20260507050543 63 172 4.0 8.0 0.00 0.00 0.00 78 1012.1
20260507050016 63 173 4.0 10.0 0.00 0.00 0.00 78 1012.0
20260507045542 63 184 4.0 8.0 0.00 0.00 0.00 78 1011.9
20260507045024 63 178 4.0 8.0 0.00 0.00 0.00 77 1012.1
20260507044525 62 172 1.0 4.0 0.00 0.00 0.00 77 1012.2
20260507044042 62 187 1.0 3.0 0.00 0.00 0.00 78 1012.2
20260507043525 62 176 2.0 5.0 0.00 0.00 0.00 77 1012.1
20260507043043 62 173 1.0 4.0 0.00 0.00 0.00 77 1012.1
20260507042524 63 162 1.0 4.0 0.00 0.00 0.00 77 1012.3
20260507042020 63 168 3.0 6.0 0.00 0.00 0.00 77 1012.3
20260507041525 63 182 4.0 8.0 0.00 0.00 0.00 76 1012.2
20260507041017 63 178 3.0 8.0 0.00 0.00 0.00 76 1012.3
20260507040545 64 179 2.0 6.0 0.00 0.00 0.00 75 1012.3
20260507040025 64 173 4.0 7.0 0.00 0.00 0.00 75 1012.1
20260507035558 64 168 3.0 5.0 0.00 0.00 0.00 75 1012.0
20260507035040 63 175 3.0 7.0 0.00 0.00 0.00 76 1011.9
20260507034525 63 178 3.0 7.0 0.00 0.00 0.00 77 1011.9
20260507034020 62 179 4.0 8.0 0.00 0.00 0.00 78 1011.8
20260507033519 62 179 3.0 5.0 0.00 0.00 0.00 78 1011.8
20260507033025 63 174 1.0 4.0 0.00 0.00 0.00 78 1011.8
20260507032520 64 178 1.0 2.0 0.00 0.00 0.00 78 1011.8
20260507032019 63 180 1.0 3.0 0.00 0.00 0.00 78 1011.7
20260507031543 63 172 0.0 1.0 0.00 0.00 0.00 79 1011.8
20260507031017 63 158 0.0 1.0 0.00 0.00 0.00 79 1011.8
20260507030522 63 0.0 0.0 0.00 0.00 0.00 79 1011.9
20260507030019 63 171 0.0 2.0 0.00 0.00 0.00 80 1011.7
20260507025517 63 180 0.0 1.0 0.00 0.00 0.00 80 1011.8
20260507025025 63 178 1.0 3.0 0.00 0.00 0.00 80 1011.8
20260507024522 63 172 1.0 3.0 0.00 0.00 0.00 80 1011.6
20260507024024 63 173 1.0 2.0 0.00 0.00 0.00 80 1011.6
20260507023519 63 169 1.0 2.0 0.00 0.00 0.00 80 1011.7
20260507023016 63 176 2.0 3.0 0.00 0.00 0.00 80 1011.8
20260507022524 62 174 2.0 4.0 0.00 0.00 0.00 80 1011.7
20260507022016 63 175 0.0 2.0 0.00 0.00 0.00 80 1012.0
20260507021521 63 184 1.0 5.0 0.00 0.00 0.00 80 1012.1
20260507021022 63 178 0.0 2.0 0.00 0.00 0.00 80 1012.1
20260507020521 63 51 0.0 1.0 0.00 0.00 0.00 80 1012.1
20260507020023 63 166 0.0 2.0 0.00 0.00 0.00 80 1012.1
20260507015541 63 177 2.0 5.0 0.00 0.00 0.00 80 1012.0
20260507015026 63 185 2.0 5.0 0.00 0.00 0.00 80 1012.0
20260507014538 63 181 2.0 5.0 0.00 0.00 0.00 80 1011.9
20260507014016 63 175 3.0 6.0 0.00 0.00 0.00 80 1011.9
20260507013525 63 173 4.0 6.0 0.00 0.00 0.00 80 1012.2
20260507013017 63 180 2.0 4.0 0.00 0.00 0.00 80 1012.3
20260507012518 63 177 2.0 4.0 0.00 0.00 0.00 80 1012.4
20260507012022 63 178 3.0 5.0 0.00 0.00 0.00 80 1012.3
20260507011520 63 175 3.0 5.0 0.00 0.00 0.00 80 1012.3
20260507011024 63 174 4.0 6.0 0.00 0.00 0.00 80 1012.4
20260507010525 62 175 4.0 6.0 0.00 0.00 0.00 80 1012.5
20260507010021 62 177 5.0 9.0 0.00 0.00 0.00 80 1012.4
20260507005517 63 185 5.0 8.0 0.00 0.00 0.00 80 1012.5
20260507005023 63 176 4.0 8.0 0.00 0.00 0.00 80 1012.4
20260507004521 63 173 3.0 7.0 0.00 0.00 0.00 80 1012.5
20260507004017 63 173 3.0 5.0 0.00 0.00 0.00 80 1012.6
20260507003537 63 173 3.0 4.0 0.00 0.00 0.00 81 1012.7
20260507003025 63 178 2.0 3.0 0.00 0.00 0.00 81 1012.7
20260507002520 63 179 2.0 6.0 0.00 0.00 0.00 81 1012.8
20260507002039 63 175 1.0 3.0 0.00 0.00 0.00 81 1012.8
20260507001529 63 176 2.0 4.0 0.00 0.00 0.00 81 1012.8
20260507001020 63 170 2.0 6.0 0.00 0.00 0.00 81 1012.8
20260507000618 63 175 3.0 5.0 0.00 0.00 0.00 81 1012.8
20260507000024 63 178 4.0 8.0 0.00 0.00 0.00 81 1012.8
20260506235527 63 173 4.0 9.0 0.00 0.00 0.00 81 1012.7
20260506235028 63 177 4.0 7.0 0.00 0.00 0.00 81 1012.8
20260506234537 63 176 3.0 7.0 0.00 0.00 0.00 81 1012.9
20260506234025 63 175 4.0 8.0 0.00 0.00 0.00 81 1012.9
20260506233519 63 176 4.0 7.0 0.00 0.00 0.00 81 1012.9
20260506233036 63 171 5.0 7.0 0.00 0.00 0.00 81 1012.8
20260506232526 63 169 6.0 9.0 0.00 0.00 0.00 81 1012.7
20260506232025 63 183 6.0 10.0 0.00 0.00 0.00 81 1012.7
20260506231518 63 171 7.0 12.0 0.00 0.00 0.00 80 1012.6
20260506231026 63 186 7.0 11.0 0.00 0.00 0.00 80 1012.6
20260506230529 63 174 7.0 13.0 0.00 0.00 0.00 80 1012.5
20260506230028 63 174 8.0 16.0 0.00 0.00 0.00 80 1012.4
20260506225525 63 173 9.0 13.0 0.00 0.00 0.00 80 1012.4
20260506225041 63 171 8.0 15.0 0.00 0.00 0.00 80 1012.4
20260506224526 63 177 8.0 13.0 0.00 0.00 0.00 80 1012.4
20260506224022 63 181 8.0 15.0 0.00 0.00 0.00 80 1012.3
20260506223525 63 184 8.0 15.0 0.00 0.00 0.00 80 1012.3
20260506223025 63 177 6.0 11.0 0.00 0.00 0.00 80 1012.2
20260506222517 63 187 5.0 8.0 0.00 0.00 0.00 80 1012.2
20260506222021 63 173 6.0 10.0 0.00 0.00 0.00 80 1012.3
20260506221515 63 179 6.0 12.0 0.00 0.00 0.00 80 1012.2
20260506221026 63 170 7.0 12.0 0.00 0.00 0.00 80 1012.0
20260506220542 63 184 7.0 14.0 0.00 0.00 0.00 80 1011.9
20260506220026 63 171 6.0 10.0 0.00 0.00 0.00 81 1012.0
20260506215523 63 174 6.0 10.0 0.00 0.00 0.00 81 1012.0
20260506215042 63 175 6.0 12.0 0.00 0.00 0.00 81 1012.0
20260506214602 63 179 7.0 10.0 0.00 0.00 0.00 81 1011.9
20260506214024 63 172 6.0 12.0 0.00 0.00 0.00 81 1011.8
20260506213539 62 180 5.0 9.0 0.00 0.00 0.00 81 1011.7
20260506213026 62 177 5.0 9.0 0.00 0.00 0.00 82 1011.6
20260506212542 62 179 3.0 5.0 0.00 0.00 0.00 82 1011.6
20260506212047 62 178 4.0 6.0 0.00 0.00 0.00 82 1011.5
20260506211517 63 177 4.0 6.0 0.00 0.00 0.00 82 1011.6
20260506211024 63 163 3.0 5.0 0.00 0.00 0.00 82 1011.7
20260506210527 63 169 3.0 5.0 0.00 0.00 0.00 81 1011.7
20260506210024 63 168 3.0 5.0 0.00 0.00 0.00 82 1011.9
20260506205527 63 167 2.0 4.0 0.00 0.00 0.00 82 1012.0
20260506205017 63 175 3.0 6.0 0.00 0.00 0.00 81 1012.1
20260506204542 63 175 2.0 5.0 0.00 0.00 0.00 81 1012.1
20260506204027 63 174 3.0 7.0 0.00 0.00 0.00 81 1012.3
20260506203517 63 174 3.0 6.0 0.00 0.00 0.00 81 1012.6
20260506203025 63 181 3.0 5.0 0.00 0.00 0.00 81 1012.8
20260506202542 62 166 4.0 9.0 0.00 0.00 0.00 82 1012.8
20260506202042 62 175 4.0 8.0 0.00 0.00 0.00 81 1013.0
20260506201526 62 181 4.0 6.0 0.00 0.00 0.00 81 1013.1
20260506201023 62 179 4.0 7.0 0.00 0.00 0.00 81 1013.2
20260506200525 62 175 4.0 8.0 0.00 0.00 0.00 81 1013.3
20260506200026 62 177 5.0 8.0 0.00 0.00 0.00 81 1013.3
20260506195525 63 174 5.0 8.0 0.00 0.00 0.00 81 1013.3
20260506195026 63 173 5.0 10.0 0.00 0.00 0.00 81 1013.3
20260506194522 62 168 4.0 6.0 0.00 0.00 0.00 81 1013.2
20260506194025 62 177 4.0 7.0 0.00 0.00 0.00 81 1013.2
20260506193536 62 179 3.0 7.0 0.00 0.00 0.00 81 1013.3
20260506193024 63 175 6.0 11.0 0.00 0.00 0.00 81 1013.3
20260506192526 63 181 6.0 11.0 0.00 0.00 0.00 81 1013.2
20260506192047 62 177 6.0 10.0 0.00 0.00 0.00 81 1013.3
20260506191521 63 179 6.0 10.0 0.00 0.00 0.00 81 1013.3
20260506191021 63 179 6.0 9.0 0.00 0.00 0.00 81 1013.4
20260506190519 63 178 7.0 11.0 0.00 0.00 0.00 81 1013.4
20260506190104 63 173 6.0 9.0 0.00 0.00 0.00 81 1013.3
20260506185516 63 172 5.0 7.0 0.00 0.00 0.00 81 1013.2
20260506185025 63 171 5.0 7.0 0.00 0.00 0.00 80 1013.1
20260506184516 63 173 7.0 13.0 0.00 0.00 0.00 80 1013.1
20260506184016 63 182 6.0 10.0 0.00 0.00 0.00 80 1013.0
20260506183520 63 176 6.0 11.0 0.00 0.00 0.00 80 1012.9
20260506183022 63 167 7.0 12.0 0.00 0.00 0.00 80 1013.0
20260506182519 64 174 7.0 12.0 0.00 0.00 0.00 80 1012.9
20260506182028 64 185 7.0 12.0 0.00 0.00 0.00 80 1012.8
20260506181517 64 167 7.0 11.0 0.00 0.00 0.00 80 1012.7
20260506181026 64 174 5.0 7.0 0.00 0.00 0.00 80 1012.7
20260506180522 64 171 6.0 10.0 0.00 0.00 0.00 80 1012.5
20260506180027 64 170 6.0 11.0 0.00 0.00 0.00 80 1012.4
20260506175525 64 177 5.0 11.0 0.00 0.00 0.00 80 1012.3
20260506175016 64 181 6.0 9.0 0.00 0.00 0.00 80 1012.3
20260506174536 64 179 6.0 10.0 0.00 0.00 0.00 80 1012.2
20260506174022 64 175 6.0 9.0 0.00 0.00 0.00 80 1012.3
20260506173516 64 179 6.0 8.0 0.00 0.00 0.00 80 1012.3
20260506173023 64 171 8.0 14.0 0.00 0.00 0.00 80 1012.4
20260506172526 64 177 6.0 10.0 0.00 0.00 0.00 79 1012.5
20260506172022 64 181 6.0 11.0 0.00 0.00 0.00 79 1012.5
20260506171526 64 174 6.0 10.0 0.00 0.00 0.00 79 1012.5
20260506171020 65 178 7.0 12.0 0.00 0.00 0.00 79 1012.7
20260506170518 65 171 5.0 9.0 0.00 0.00 0.00 79 1012.7
20260506170023 65 179 6.0 10.0 0.00 0.00 0.00 79 1012.7
20260506165520 65 181 7.0 11.0 0.00 0.00 0.00 79 1012.6
20260506165019 65 168 6.0 11.0 0.00 0.00 0.00 79 1012.5
20260506164516 65 175 6.0 10.0 0.00 0.00 0.00 79 1012.6
20260506164017 65 167 6.0 9.0 0.00 0.00 0.00 79 1012.8
20260506163526 65 181 6.0 10.0 0.00 0.00 0.00 79 1012.8
20260506163016 65 179 7.0 11.0 0.00 0.00 0.00 79 1012.8
20260506162525 65 183 6.0 13.0 0.00 0.00 0.00 79 1012.8
20260506162017 65 177 5.0 9.0 0.00 0.00 0.00 79 1012.9
20260506161527 65 176 4.0 8.0 0.00 0.00 0.00 79 1013.0
20260506161017 65 176 5.0 8.0 0.00 0.00 0.00 79 1013.1
20260506160519 65 171 6.0 9.0 0.00 0.00 0.00 79 1013.1
20260506160020 65 176 6.0 12.0 0.00 0.00 0.00 79 1013.1
20260506155518 65 177 5.0 10.0 0.00 0.00 0.00 79 1013.1
20260506155016 65 176 6.0 10.0 0.00 0.00 0.00 79 1013.1
20260506154523 65 178 6.0 11.0 0.00 0.00 0.00 79 1013.1
20260506154017 65 174 7.0 11.0 0.00 0.00 0.00 79 1013.2
20260506153526 65 177 6.0 9.0 0.00 0.00 0.00 79 1013.3
20260506153026 65 182 7.0 12.0 0.00 0.00 0.00 79 1013.3
20260506152525 65 172 7.0 12.0 0.00 0.00 0.00 79 1013.3
20260506152028 65 180 7.0 13.0 0.00 0.00 0.00 79 1013.2
20260506151518 65 180 7.0 12.0 0.00 0.00 0.00 79 1013.3
20260506151046 65 171 9.0 17.0 0.00 0.00 0.00 79 1013.3
20260506150525 65 175 9.0 14.0 0.00 0.00 0.00 79 1013.2
20260506150024 66 172 10.0 15.0 0.00 0.00 0.00 79 1013.3
20260506145528 66 175 10.0 16.0 0.00 0.00 0.00 79 1013.3
20260506145020 66 171 10.0 16.0 0.00 0.00 0.00 79 1013.4
20260506144515 65 170 8.0 13.0 0.00 0.00 0.00 79 1013.3
20260506144025 65 173 8.0 12.0 0.00 0.00 0.00 79 1013.0
20260506143541 65 166 8.0 15.0 0.00 0.00 0.00 79 1012.9
20260506143021 65 180 10.0 14.0 0.00 0.00 0.00 79 1012.9
20260506142537 65 179 10.0 15.0 0.00 0.00 0.00 79 1012.8
20260506142023 65 173 9.0 17.0 0.00 0.00 0.00 79 1012.8
20260506141520 65 180 9.0 15.0 0.00 0.00 0.00 79 1012.8
20260506141020 66 172 8.0 13.0 0.00 0.00 0.00 79 1012.9
20260506140518 65 182 9.0 12.0 0.00 0.00 0.00 79 1013.0
20260506140024 65 183 10.0 15.0 0.00 0.00 0.00 79 1013.1
20260506135525 65 185 9.0 15.0 0.00 0.00 0.00 79 1013.1
20260506135021 65 175 9.0 13.0 0.00 0.00 0.00 79 1013.1
20260506134525 65 186 9.0 14.0 0.00 0.00 0.00 79 1012.9
20260506134017 66 172 10.0 17.0 0.00 0.00 0.00 78 1012.9
20260506133518 66 174 8.0 12.0 0.00 0.00 0.00 79 1013.0
20260506133023 66 175 8.0 15.0 0.00 0.00 0.00 79 1013.1
20260506132520 66 187 9.0 14.0 0.00 0.00 0.00 79 1013.1
20260506132021 66 183 9.0 14.0 0.00 0.00 0.00 79 1013.2
20260506131521 65 180 9.0 16.0 0.00 0.00 0.00 78 1013.2
20260506131108 66 172 10.0 15.0 0.00 0.00 0.00 78 1013.3
20260506130519 66 175 8.0 16.0 0.00 0.00 0.00 78 1013.5
20260506130027 66 177 10.0 17.0 0.00 0.00 0.00 78 1013.6
20260506125545 66 184 9.0 14.0 0.00 0.00 0.00 78 1013.7
20260506125026 66 169 10.0 15.0 0.00 0.00 0.00 78 1013.7
20260506124606 66 173 9.0 14.0 0.00 0.00 0.00 78 1013.6
20260506124019 66 172 8.0 16.0 0.00 0.00 0.00 78 1013.5
20260506123522 66 176 9.0 14.0 0.00 0.00 0.00 78 1013.4
20260506123021 66 180 10.0 14.0 0.00 0.00 0.00 78 1013.5
20260506122520 66 174 9.0 13.0 0.00 0.00 0.00 78 1013.5
20260506122017 66 179 9.0 14.0 0.00 0.00 0.00 78 1013.5
20260506121524 66 173 8.0 13.0 0.00 0.00 0.00 78 1013.6
20260506121042 66 173 9.0 14.0 0.00 0.00 0.00 78 1013.6
20260506120525 65 171 9.0 13.0 0.00 0.00 0.00 78 1013.8
20260506120118 65 177 9.0 14.0 0.00 0.00 0.00 78 1013.6
20260506115520 65 178 10.0 14.0 0.00 0.00 0.00 78 1013.8
20260506115020 66 175 11.0 16.0 0.00 0.00 0.00 78 1013.8
20260506114522 66 181 12.0 17.0 0.00 0.00 0.00 78 1013.8
20260506114016 66 177 10.0 15.0 0.00 0.00 0.00 78 1013.9
20260506113524 66 170 9.0 14.0 0.00 0.00 0.00 78 1014.0
20260506113022 66 172 9.0 15.0 0.00 0.00 0.00 78 1014.0
20260506112541 66 173 9.0 13.0 0.00 0.00 0.00 79 1013.9
20260506112016 65 177 11.0 15.0 0.00 0.00 0.00 79 1013.9
20260506111522 65 187 10.0 15.0 0.00 0.00 0.00 78 1013.9
20260506111017 65 177 11.0 16.0 0.00 0.00 0.00 78 1014.1
20260506110521 65 176 11.0 16.0 0.00 0.00 0.00 78 1014.2
20260506110016 66 176 10.0 16.0 0.00 0.00 0.00 78 1014.1
20260506105527 66 180 10.0 15.0 0.00 0.00 0.00 79 1014.0
20260506105018 66 178 9.0 16.0 0.00 0.00 0.00 79 1014.1
20260506104543 66 173 10.0 17.0 0.00 0.00 0.00 79 1014.2
20260506104024 66 178 10.0 14.0 0.00 0.00 0.00 79 1014.1
20260506103523 66 176 11.0 16.0 0.00 0.00 0.00 78 1014.1
20260506103018 66 173 10.0 16.0 0.00 0.00 0.00 78 1014.1
20260506102527 66 178 10.0 15.0 0.00 0.00 0.00 78 1014.2
20260506102025 66 182 9.0 14.0 0.00 0.00 0.00 78 1014.3
20260506101520 66 179 10.0 16.0 0.00 0.00 0.00 78 1014.3
20260506101044 66 173 10.0 15.0 0.00 0.00 0.00 78 1014.3
20260506100524 66 178 9.0 16.0 0.00 0.00 0.00 78 1014.4
20260506100022 66 175 10.0 13.0 0.00 0.00 0.00 78 1014.4
20260506095522 66 178 10.0 15.0 0.00 0.00 0.00 78 1014.4
20260506095016 66 181 8.0 13.0 0.00 0.00 0.00 78 1014.4
20260506094540 65 177 8.0 13.0 0.00 0.00 0.00 78 1014.5
20260506094037 65 180 8.0 14.0 0.00 0.00 0.00 78 1014.4